Location: ???????
(55.7027°N, 37.3832°E)
Time: 09:45:55
(UTC+00:00)

Cosmos 1864 Rocket - Pass Details

Date: 14 April 2026
Orbit: 950 x 996 km, 82.9° (Epoch: 19 May)

Event Time Altitude Azimuth Distance (km) Brightness Sun altitude
Exits shadow 21:23:06 55° 183° (S) 1,170 4.5 -24.6°
Maximum altitude 21:24:36 86° 99° (E) 999 4.4 -24.6°
Drops below altitude 10° 21:30:59 10° 12° (NNE) 2,771 7.9 -24.6°
Sets 21:33:32 0° 12° (NNE) 3,727 8.9 -24.6°
